Location: Gerlach
(40.6516°N, 119.3568°W)
Time: 05:52:14
(UTC-07:00)

Explorer 11/Cluster Stage 4 - Pass Details

Date: 05 February 2023
Orbit: 466 x 1241 km, 28.8° (Epoch: 02 April)

Event Time Altitude Azimuth Distance (km) Brightness Sun altitude
Exits shadow 04:54:01 22° 211° (SSW) 2,295 8.6 -24.8°
Maximum altitude 04:57:35 32° 170° (S) 1,950 8.6 -24.2°
Drops below altitude 10° 05:04:33 10° 112° (ESE) 3,201 10.7 -22.8°
Sets 05:07:48 0° 103° (ESE) 4,149 11.7 -22.2°
